7 * 24
多渠道服务支持
STARLINK-11423是美国SpaceX公司星链星座的第二代卫星,于2024年11月14日发射入轨,属于星链Gen2星座部署批次,旨在完善全球低轨卫星互联网覆盖。该卫星继承星链成熟设计,配备相控阵天线与氪离子推进系统,支持激光星间通信,可提供低时延宽带接入服务,服务范围涵盖民用通信、海事航空及应急场景,助力星链星座完成规模化组网。
美国
(US)
| 数据来源 | 国际轨道数据 |
| 星历时间: | 2026-09-11T06:34:15+0800 11小时前 查看轨道信息 |
| 半长轴: | 6737.484km |
| 偏心率: | 0.0000697 |
| 轨道倾角: | 53.159° |
| 近地点辐角 | 154.531° |
| 升交点赤经 | 178.047° |
| 平近点角 | 205.574° |
| 近地点: | 358.877km |
| 远地点: | 359.817km |
| 周期: | 91.729分钟 |
| 每日圈数: | 15.698429 |